GEFSNE_prec_meanprecacc_024.txt.gz
Total_Precipitation_Accumulation
0.00 0.00 0.01 0.00 0.01 0.01 0.02 0.03 0.06 0.05 0.02 0.00 0.00 0.00 0.00 0.00 0.00 0.01 0.04 0.05 0.04 0.04 0.04 0.03 0.02 0.02 0.02 0.02 0.02 0.02 0.03 0.03 0.04 0.05 0.08 0.12 0.18 0.22
0.01 0.01 0.02 0.02 0.03 0.03 0.05 0.05 0.06 0.07 0.06 0.01 0.01 0.01 0.01 0.02 0.01 0.03 0.05 0.05 0.04 0.03 0.03 0.03 0.03 0.04 0.03 0.03 0.04 0.04 0.03 0.03 0.03 0.03 0.04 0.06 0.09 0.15
0.02 0.02 0.04 0.05 0.06 0.06 0.06 0.05 0.05 0.08 0.10 0.04 0.02 0.02 0.05 0.07 0.07 0.10 0.11 0.11 0.10 0.07 0.06 0.07 0.07 0.07 0.06 0.07 0.07 0.07 0.07 0.07 0.06 0.05 0.05 0.04 0.05 0.07
0.03 0.04 0.05 0.05 0.07 0.06 0.06 0.05 0.06 0.08 0.11 0.09 0.07 0.07 0.08 0.11 0.11 0.11 0.06 0.05 0.10 0.08 0.08 0.09 0.10 0.10 0.10 0.10 0.10 0.08 0.06 0.06 0.06 0.06 0.07 0.06 0.05 0.04
0.03 0.04 0.05 0.05 0.06 0.05 0.04 0.04 0.05 0.07 0.12 0.14 0.12 0.11 0.10 0.08 0.09 0.08 0.08 0.12 0.09 0.08 0.08 0.08 0.08 0.08 0.07 0.06 0.06 0.06 0.05 0.04 0.03 0.03 0.04 0.06 0.06 0.05
0.03 0.03 0.03 0.04 0.04 0.04 0.04 0.05 0.08 0.11 0.13 0.15 0.13 0.09 0.07 0.06 0.09 0.09 0.09 0.10 0.10 0.08 0.07 0.06 0.05 0.03 0.03 0.02 0.03 0.03 0.04 0.04 0.05 0.04 0.03 0.02 0.02 0.02
0.02 0.02 0.02 0.03 0.05 0.05 0.06 0.07 0.11 0.14 0.14 0.14 0.12 0.08 0.06 0.06 0.07 0.09 0.09 0.06 0.05 0.04 0.04 0.02 0.02 0.02 0.02 0.02 0.01 0.02 0.02 0.02 0.02 0.02 0.02 0.01 0.01 0.01
0.02 0.02 0.02 0.02 0.02 0.03 0.05 0.09 0.13 0.15 0.15 0.14 0.11 0.09 0.06 0.06 0.10 0.13 0.12 0.12 0.10 0.06 0.06 0.04 0.02 0.02 0.02 0.03 0.05 0.05 0.04 0.03 0.02 0.01 0.00 0.00 0.00 0.00
0.03 0.04 0.02 0.01 0.02 0.04 0.05 0.06 0.06 0.07 0.10 0.15 0.14 0.09 0.08 0.10 0.19 0.21 0.20 0.19 0.16 0.12 0.12 0.10 0.05 0.04 0.04 0.06 0.10 0.10 0.08 0.07 0.06 0.02 0.01 0.00 0.00 0.00
0.03 0.04 0.04 0.03 0.03 0.05 0.04 0.03 0.03 0.02 0.04 0.08 0.12 0.11 0.11 0.14 0.23 0.28 0.26 0.24 0.18 0.13 0.17 0.19 0.10 0.07 0.06 0.09 0.15 0.15 0.11 0.13 0.11 0.05 0.02 0.01 0.00 0.00
0.02 0.02 0.04 0.04 0.06 0.08 0.06 0.04 0.04 0.03 0.05 0.13 0.19 0.22 0.26 0.31 0.33 0.33 0.33 0.31 0.25 0.19 0.23 0.29 0.23 0.17 0.12 0.12 0.15 0.17 0.18 0.25 0.23 0.12 0.05 0.03 0.02 0.01
0.01 0.02 0.05 0.06 0.06 0.07 0.05 0.07 0.09 0.07 0.11 0.17 0.27 0.41 0.45 0.44 0.41 0.36 0.32 0.31 0.30 0.34 0.33 0.36 0.31 0.22 0.18 0.17 0.16 0.16 0.20 0.35 0.37 0.23 0.10 0.06 0.05 0.03
0.03 0.04 0.05 0.07 0.06 0.06 0.07 0.09 0.13 0.15 0.18 0.24 0.35 0.43 0.42 0.33 0.26 0.23 0.22 0.26 0.32 0.38 0.36 0.33 0.28 0.24 0.25 0.24 0.18 0.21 0.28 0.40 0.43 0.32 0.18 0.11 0.08 0.05
0.03 0.05 0.08 0.10 0.08 0.10 0.11 0.14 0.17 0.21 0.21 0.28 0.35 0.36 0.29 0.21 0.19 0.17 0.16 0.19 0.25 0.29 0.28 0.26 0.25 0.20 0.21 0.20 0.21 0.30 0.42 0.54 0.55 0.41 0.24 0.19 0.13 0.10
0.04 0.09 0.13 0.15 0.16 0.16 0.19 0.20 0.20 0.19 0.22 0.27 0.31 0.29 0.23 0.17 0.14 0.13 0.13 0.16 0.19 0.22 0.22 0.21 0.19 0.19 0.21 0.23 0.31 0.41 0.53 0.71 0.69 0.52 0.36 0.26 0.15 0.10
0.04 0.11 0.20 0.25 0.26 0.25 0.25 0.24 0.20 0.21 0.24 0.24 0.23 0.19 0.15 0.13 0.11 0.11 0.14 0.16 0.19 0.22 0.22 0.20 0.20 0.25 0.31 0.37 0.43 0.48 0.50 0.67 0.73 0.58 0.45 0.38 0.29 0.22
0.04 0.08 0.16 0.22 0.23 0.21 0.20 0.19 0.19 0.20 0.20 0.16 0.15 0.14 0.12 0.12 0.12 0.12 0.13 0.14 0.18 0.22 0.23 0.21 0.22 0.23 0.24 0.29 0.36 0.39 0.43 0.53 0.62 0.54 0.41 0.45 0.51 0.39
0.05 0.10 0.18 0.25 0.27 0.24 0.21 0.18 0.16 0.16 0.15 0.14 0.13 0.12 0.13 0.13 0.14 0.15 0.13 0.12 0.14 0.16 0.18 0.18 0.17 0.15 0.11 0.16 0.31 0.35 0.38 0.50 0.55 0.43 0.31 0.39 0.53 0.47
0.04 0.10 0.17 0.23 0.24 0.21 0.19 0.18 0.17 0.15 0.13 0.13 0.13 0.13 0.13 0.13 0.13 0.13 0.12 0.12 0.12 0.13 0.13 0.13 0.12 0.10 0.06 0.13 0.32 0.43 0.43 0.47 0.46 0.40 0.32 0.30 0.43 0.47
0.07 0.12 0.15 0.18 0.21 0.20 0.18 0.16 0.15 0.13 0.12 0.12 0.13 0.14 0.14 0.13 0.12 0.12 0.12 0.11 0.11 0.09 0.09 0.10 0.11 0.10 0.06 0.09 0.24 0.42 0.50 0.41 0.33 0.32 0.31 0.29 0.38 0.40
0.10 0.13 0.15 0.15 0.16 0.16 0.16 0.16 0.15 0.14 0.14 0.14 0.14 0.14 0.14 0.13 0.12 0.11 0.10 0.09 0.08 0.06 0.06 0.07 0.09 0.09 0.04 0.04 0.11 0.23 0.35 0.41 0.34 0.28 0.26 0.25 0.22 0.17
0.12 0.13 0.14 0.13 0.13 0.13 0.12 0.13 0.13 0.12 0.12 0.13 0.15 0.16 0.15 0.13 0.12 0.10 0.09 0.08 0.07 0.05 0.05 0.06 0.06 0.06 0.05 0.05 0.10 0.18 0.22 0.24 0.26 0.27 0.24 0.14 0.07 0.08
0.13 0.13 0.12 0.11 0.11 0.10 0.10 0.09 0.10 0.10 0.10 0.12 0.14 0.15 0.14 0.12 0.10 0.08 0.06 0.04 0.04 0.03 0.02 0.03 0.03 0.03 0.03 0.04 0.06 0.10 0.11 0.09 0.07 0.07 0.11 0.11 0.07 0.08

GEFSNE_prec_meanprecacc_030.txt.gz
Total_Precipitation_Accumulation
0.00 0.01 0.01 0.00 0.01 0.01 0.02 0.04 0.06 0.05 0.02 0.00 0.00 0.00 0.00 0.00 0.00 0.01 0.04 0.05 0.04 0.04 0.04 0.03 0.02 0.02 0.02 0.02 0.02 0.03 0.03 0.04 0.05 0.06 0.09 0.14 0.21 0.26
0.01 0.01 0.02 0.02 0.03 0.03 0.05 0.05 0.06 0.08 0.06 0.02 0.01 0.01 0.02 0.02 0.01 0.03 0.06 0.05 0.05 0.04 0.03 0.04 0.04 0.04 0.04 0.04 0.04 0.04 0.04 0.04 0.03 0.03 0.05 0.07 0.11 0.17
0.02 0.02 0.04 0.05 0.06 0.06 0.06 0.05 0.06 0.09 0.11 0.05 0.02 0.03 0.06 0.08 0.08 0.11 0.11 0.12 0.11 0.07 0.07 0.07 0.07 0.07 0.07 0.08 0.08 0.08 0.08 0.08 0.08 0.07 0.06 0.06 0.07 0.09
0.03 0.04 0.05 0.05 0.07 0.07 0.06 0.05 0.06 0.09 0.12 0.11 0.08 0.07 0.09 0.12 0.13 0.13 0.07 0.06 0.10 0.08 0.08 0.09 0.10 0.11 0.11 0.11 0.11 0.10 0.08 0.07 0.07 0.08 0.09 0.09 0.09 0.09
0.03 0.04 0.05 0.05 0.06 0.05 0.05 0.05 0.06 0.08 0.13 0.16 0.14 0.12 0.11 0.09 0.11 0.10 0.10 0.14 0.10 0.08 0.08 0.08 0.08 0.08 0.07 0.07 0.07 0.06 0.05 0.04 0.04 0.04 0.06 0.08 0.10 0.10
0.03 0.03 0.03 0.04 0.04 0.05 0.05 0.07 0.10 0.13 0.16 0.18 0.15 0.11 0.08 0.07 0.11 0.12 0.11 0.11 0.11 0.08 0.08 0.06 0.05 0.04 0.03 0.03 0.03 0.04 0.05 0.05 0.06 0.06 0.05 0.05 0.06 0.06
0.02 0.02 0.02 0.03 0.05 0.05 0.07 0.10 0.15 0.18 0.19 0.19 0.15 0.10 0.07 0.08 0.10 0.12 0.12 0.08 0.06 0.05 0.06 0.04 0.04 0.04 0.03 0.03 0.02 0.02 0.02 0.03 0.03 0.04 0.05 0.04 0.04 0.04
0.02 0.02 0.02 0.02 0.02 0.03 0.05 0.10 0.16 0.19 0.19 0.18 0.16 0.14 0.09 0.10 0.14 0.17 0.16 0.15 0.13 0.08 0.09 0.06 0.04 0.04 0.05 0.06 0.06 0.05 0.05 0.03 0.03 0.02 0.03 0.04 0.03 0.03
0.04 0.04 0.03 0.01 0.03 0.05 0.06 0.07 0.07 0.08 0.13 0.19 0.19 0.15 0.14 0.16 0.24 0.26 0.24 0.23 0.20 0.15 0.17 0.14 0.08 0.07 0.06 0.07 0.10 0.10 0.08 0.07 0.06 0.03 0.02 0.02 0.03 0.03
0.04 0.05 0.05 0.04 0.05 0.06 0.05 0.04 0.04 0.04 0.06 0.10 0.16 0.16 0.15 0.18 0.27 0.32 0.31 0.28 0.21 0.16 0.23 0.24 0.13 0.10 0.09 0.12 0.17 0.15 0.11 0.13 0.11 0.05 0.02 0.01 0.01 0.02
0.02 0.03 0.04 0.06 0.07 0.08 0.06 0.06 0.05 0.04 0.06 0.14 0.21 0.25 0.29 0.33 0.36 0.37 0.38 0.35 0.28 0.21 0.28 0.34 0.27 0.20 0.15 0.16 0.19 0.18 0.18 0.26 0.24 0.12 0.05 0.03 0.02 0.02
0.02 0.03 0.06 0.07 0.06 0.07 0.06 0.09 0.11 0.09 0.12 0.18 0.29 0.45 0.49 0.48 0.45 0.41 0.38 0.36 0.34 0.37 0.37 0.40 0.34 0.25 0.21 0.20 0.21 0.20 0.24 0.37 0.38 0.24 0.11 0.07 0.06 0.05
0.04 0.04 0.06 0.08 0.06 0.06 0.07 0.10 0.15 0.16 0.19 0.27 0.39 0.48 0.47 0.38 0.31 0.28 0.27 0.31 0.37 0.43 0.39 0.37 0.32 0.28 0.29 0.26 0.21 0.25 0.33 0.44 0.47 0.35 0.20 0.13 0.10 0.08
0.05 0.06 0.09 0.10 0.09 0.10 0.12 0.15 0.18 0.22 0.25 0.32 0.40 0.41 0.33 0.25 0.22 0.20 0.20 0.23 0.29 0.33 0.31 0.32 0.30 0.25 0.26 0.23 0.24 0.33 0.45 0.57 0.59 0.45 0.28 0.22 0.15 0.13
0.05 0.10 0.13 0.15 0.16 0.18 0.21 0.21 0.22 0.23 0.27 0.32 0.37 0.34 0.27 0.21 0.17 0.15 0.16 0.19 0.23 0.24 0.25 0.24 0.24 0.24 0.26 0.28 0.35 0.44 0.56 0.74 0.72 0.56 0.40 0.30 0.18 0.14
0.04 0.11 0.21 0.25 0.27 0.27 0.27 0.26 0.24 0.26 0.29 0.30 0.29 0.24 0.19 0.16 0.14 0.14 0.16 0.19 0.22 0.25 0.25 0.23 0.24 0.29 0.35 0.41 0.47 0.52 0.55 0.71 0.77 0.63 0.51 0.43 0.34 0.26
0.05 0.10 0.17 0.23 0.25 0.23 0.21 0.22 0.23 0.25 0.25 0.22 0.20 0.18 0.16 0.15 0.15 0.15 0.16 0.16 0.20 0.24 0.25 0.24 0.26 0.28 0.29 0.33 0.41 0.45 0.48 0.59 0.69 0.62 0.48 0.53 0.58 0.44
0.06 0.12 0.20 0.26 0.28 0.25 0.23 0.20 0.18 0.19 0.19 0.19 0.18 0.17 0.16 0.16 0.17 0.17 0.15 0.15 0.17 0.18 0.20 0.21 0.20 0.18 0.15 0.19 0.39 0.45 0.46 0.60 0.65 0.52 0.40 0.48 0.63 0.55
0.06 0.11 0.18 0.24 0.26 0.23 0.21 0.20 0.19 0.17 0.16 0.17 0.17 0.17 0.17 0.16 0.15 0.15 0.14 0.14 0.15 0.15 0.15 0.14 0.13 0.12 0.09 0.17 0.41 0.58 0.55 0.56 0.55 0.48 0.40 0.38 0.53 0.56
0.08 0.13 0.16 0.20 0.23 0.22 0.20 0.17 0.16 0.15 0.14 0.15 0.16 0.17 0.17 0.16 0.15 0.14 0.14 0.13 0.13 0.11 0.11 0.11 0.13 0.12 0.10 0.14 0.35 0.58 0.64 0.49 0.39 0.40 0.40 0.38 0.47 0.50
0.11 0.15 0.16 0.17 0.18 0.18 0.18 0.17 0.16 0.15 0.15 0.15 0.16 0.17 0.17 0.15 0.14 0.13 0.11 0.10 0.10 0.07 0.07 0.09 0.12 0.12 0.06 0.05 0.18 0.37 0.51 0.59 0.48 0.39 0.37 0.35 0.31 0.25
0.12 0.14 0.15 0.15 0.14 0.14 0.13 0.14 0.14 0.13 0.12 0.13 0.15 0.17 0.16 0.15 0.13 0.12 0.11 0.10 0.08 0.07 0.07 0.08 0.08 0.07 0.05 0.06 0.16 0.30 0.35 0.37 0.40 0.42 0.39 0.25 0.14 0.15
0.14 0.14 0.12 0.12 0.11 0.11 0.10 0.10 0.10 0.11 0.10 0.12 0.14 0.16 0.14 0.12 0.10 0.08 0.06 0.05 0.04 0.03 0.03 0.03 0.04 0.03 0.03 0.04 0.08 0.13 0.15 0.13 0.10 0.12 0.22 0.24 0.17 0.17

GEFSNE_prec_meanprecacc_036.txt.gz
Total_Precipitation_Accumulation
0.01 0.01 0.02 0.01 0.01 0.01 0.02 0.04 0.06 0.05 0.02 0.00 0.00 0.00 0.00 0.00 0.00 0.01 0.04 0.05 0.04 0.04 0.04 0.03 0.03 0.02 0.03 0.03 0.03 0.03 0.04 0.04 0.05 0.07 0.10 0.15 0.22 0.28
0.01 0.02 0.02 0.02 0.03 0.03 0.05 0.05 0.06 0.08 0.06 0.02 0.01 0.01 0.02 0.02 0.01 0.03 0.06 0.06 0.05 0.04 0.04 0.04 0.05 0.05 0.05 0.05 0.05 0.05 0.05 0.05 0.04 0.04 0.06 0.08 0.12 0.19
0.02 0.02 0.04 0.05 0.06 0.06 0.06 0.05 0.06 0.09 0.11 0.05 0.02 0.03 0.06 0.08 0.09 0.12 0.12 0.13 0.11 0.08 0.07 0.08 0.08 0.08 0.08 0.08 0.09 0.09 0.09 0.10 0.09 0.09 0.08 0.08 0.08 0.11
0.03 0.04 0.05 0.05 0.07 0.07 0.06 0.06 0.07 0.10 0.13 0.11 0.08 0.07 0.10 0.13 0.14 0.15 0.08 0.06 0.11 0.09 0.08 0.09 0.10 0.11 0.12 0.12 0.12 0.10 0.08 0.07 0.08 0.09 0.10 0.11 0.11 0.11
0.03 0.04 0.05 0.05 0.06 0.06 0.06 0.06 0.07 0.09 0.14 0.18 0.15 0.13 0.12 0.10 0.13 0.11 0.11 0.16 0.11 0.08 0.08 0.08 0.09 0.09 0.08 0.07 0.07 0.07 0.06 0.04 0.04 0.05 0.06 0.09 0.11 0.12
0.03 0.03 0.04 0.04 0.05 0.06 0.06 0.07 0.11 0.15 0.17 0.20 0.17 0.12 0.10 0.08 0.14 0.14 0.13 0.13 0.12 0.09 0.09 0.07 0.07 0.05 0.03 0.03 0.03 0.04 0.05 0.05 0.06 0.06 0.05 0.05 0.06 0.07
0.02 0.02 0.02 0.04 0.05 0.06 0.07 0.10 0.16 0.20 0.20 0.21 0.17 0.12 0.09 0.10 0.13 0.16 0.15 0.11 0.08 0.07 0.08 0.06 0.06 0.06 0.06 0.05 0.04 0.03 0.03 0.03 0.03 0.04 0.05 0.04 0.04 0.04
0.03 0.03 0.03 0.03 0.03 0.03 0.06 0.11 0.17 0.20 0.21 0.22 0.19 0.16 0.12 0.14 0.19 0.21 0.19 0.19 0.15 0.10 0.13 0.08 0.07 0.07 0.08 0.10 0.09 0.07 0.05 0.04 0.03 0.02 0.03 0.04 0.04 0.03
0.05 0.06 0.04 0.02 0.04 0.07 0.07 0.07 0.08 0.10 0.16 0.23 0.24 0.20 0.18 0.20 0.30 0.30 0.28 0.28 0.24 0.18 0.22 0.17 0.11 0.11 0.10 0.10 0.11 0.10 0.08 0.07 0.06 0.03 0.02 0.02 0.04 0.04
0.05 0.06 0.06 0.05 0.06 0.07 0.06 0.05 0.05 0.05 0.09 0.14 0.21 0.20 0.19 0.23 0.32 0.36 0.34 0.32 0.24 0.20 0.28 0.29 0.16 0.14 0.11 0.15 0.20 0.16 0.12 0.13 0.12 0.05 0.03 0.02 0.02 0.03
0.03 0.04 0.05 0.07 0.07 0.08 0.07 0.07 0.06 0.06 0.07 0.15 0.22 0.27 0.31 0.37 0.39 0.40 0.42 0.40 0.31 0.24 0.34 0.38 0.29 0.22 0.16 0.21 0.24 0.20 0.19 0.26 0.24 0.12 0.05 0.03 0.03 0.03
0.02 0.04 0.07 0.07 0.07 0.07 0.06 0.09 0.12 0.11 0.14 0.20 0.33 0.50 0.56 0.54 0.49 0.44 0.43 0.42 0.40 0.41 0.40 0.42 0.36 0.27 0.23 0.22 0.24 0.25 0.28 0.41 0.40 0.25 0.12 0.07 0.06 0.06
0.04 0.06 0.08 0.08 0.06 0.06 0.07 0.11 0.17 0.17 0.20 0.31 0.46 0.55 0.53 0.43 0.35 0.33 0.34 0.38 0.43 0.49 0.44 0.42 0.36 0.31 0.33 0.28 0.23 0.29 0.38 0.50 0.51 0.38 0.21 0.14 0.11 0.09
0.06 0.08 0.11 0.10 0.09 0.10 0.12 0.15 0.18 0.23 0.30 0.40 0.48 0.47 0.37 0.29 0.26 0.24 0.24 0.28 0.34 0.38 0.35 0.36 0.35 0.31 0.31 0.27 0.26 0.34 0.48 0.61 0.63 0.50 0.33 0.26 0.17 0.14
0.07 0.11 0.14 0.15 0.17 0.20 0.23 0.21 0.24 0.31 0.35 0.40 0.44 0.40 0.32 0.25 0.21 0.19 0.19 0.22 0.26 0.27 0.27 0.27 0.28 0.29 0.32 0.34 0.38 0.47 0.58 0.76 0.76 0.60 0.47 0.36 0.22 0.16
0.06 0.13 0.22 0.27 0.28 0.30 0.32 0.33 0.33 0.35 0.35 0.37 0.35 0.30 0.24 0.20 0.18 0.17 0.19 0.21 0.24 0.27 0.26 0.25 0.27 0.34 0.41 0.45 0.51 0.57 0.60 0.78 0.82 0.68 0.57 0.51 0.41 0.32
0.05 0.11 0.21 0.27 0.28 0.27 0.26 0.27 0.29 0.31 0.31 0.28 0.27 0.24 0.20 0.18 0.18 0.17 0.18 0.18 0.22 0.27 0.27 0.26 0.28 0.31 0.33 0.37 0.45 0.50 0.55 0.67 0.77 0.69 0.56 0.62 0.67 0.53
0.06 0.14 0.22 0.28 0.30 0.28 0.25 0.22 0.22 0.24 0.25 0.25 0.24 0.22 0.21 0.19 0.19 0.19 0.17 0.16 0.19 0.21 0.23 0.23 0.22 0.20 0.17 0.23 0.45 0.53 0.53 0.68 0.74 0.61 0.48 0.57 0.73 0.64
0.08 0.13 0.21 0.27 0.29 0.26 0.24 0.23 0.23 0.22 0.22 0.23 0.22 0.21 0.20 0.19 0.17 0.17 0.16 0.15 0.16 0.17 0.17 0.16 0.14 0.13 0.10 0.20 0.45 0.66 0.62 0.64 0.62 0.55 0.47 0.46 0.62 0.66
0.11 0.16 0.19 0.23 0.26 0.26 0.24 0.21 0.20 0.20 0.19 0.19 0.20 0.21 0.20 0.18 0.16 0.16 0.15 0.14 0.14 0.13 0.12 0.13 0.14 0.14 0.13 0.17 0.41 0.65 0.72 0.56 0.45 0.46 0.47 0.45 0.55 0.58
0.14 0.17 0.19 0.20 0.22 0.23 0.23 0.23 0.21 0.20 0.19 0.18 0.18 0.19 0.19 0.17 0.16 0.14 0.12 0.11 0.11 0.09 0.09 0.12 0.15 0.14 0.08 0.06 0.22 0.43 0.58 0.68 0.56 0.46 0.43 0.41 0.37 0.31
0.14 0.16 0.18 0.19 0.19 0.19 0.17 0.17 0.17 0.16 0.15 0.16 0.17 0.18 0.18 0.16 0.14 0.13 0.12 0.11 0.09 0.08 0.09 0.10 0.10 0.07 0.06 0.08 0.20 0.35 0.42 0.43 0.45 0.48 0.46 0.32 0.19 0.19
0.15 0.16 0.16 0.16 0.16 0.14 0.12 0.11 0.11 0.12 0.12 0.14 0.15 0.16 0.15 0.12 0.11 0.09 0.07 0.05 0.05 0.04 0.04 0.05 0.05 0.04 0.04 0.05 0.10 0.17 0.19 0.17 0.12 0.15 0.30 0.34 0.25 0.24

GEFSNE_prec_meanprecacc_042.txt.gz
Total_Precipitation_Accumulation
0.01 0.01 0.02 0.01 0.01 0.01 0.02 0.04 0.06 0.05 0.02 0.00 0.00 0.00 0.00 0.00 0.00 0.01 0.04 0.05 0.04 0.04 0.04 0.03 0.03 0.03 0.03 0.03 0.04 0.04 0.05 0.05 0.07 0.09 0.12 0.18 0.24 0.31
0.01 0.02 0.02 0.02 0.03 0.04 0.05 0.05 0.06 0.08 0.06 0.02 0.01 0.01 0.02 0.02 0.01 0.03 0.06 0.06 0.05 0.04 0.04 0.04 0.05 0.05 0.05 0.05 0.06 0.07 0.07 0.06 0.06 0.07 0.09 0.11 0.16 0.22
0.02 0.02 0.04 0.05 0.06 0.06 0.06 0.05 0.06 0.09 0.11 0.05 0.02 0.03 0.06 0.08 0.09 0.12 0.12 0.13 0.11 0.08 0.07 0.08 0.08 0.08 0.08 0.09 0.10 0.10 0.11 0.11 0.11 0.10 0.10 0.11 0.12 0.14
0.03 0.04 0.05 0.05 0.07 0.07 0.06 0.06 0.07 0.10 0.13 0.11 0.08 0.07 0.10 0.13 0.14 0.15 0.08 0.06 0.11 0.09 0.08 0.09 0.10 0.12 0.12 0.13 0.12 0.11 0.09 0.08 0.08 0.09 0.11 0.12 0.13 0.14
0.03 0.04 0.05 0.05 0.06 0.06 0.06 0.06 0.07 0.09 0.14 0.18 0.15 0.13 0.12 0.10 0.13 0.11 0.11 0.16 0.11 0.08 0.08 0.08 0.09 0.09 0.08 0.07 0.07 0.07 0.06 0.04 0.04 0.05 0.07 0.10 0.12 0.14
0.03 0.03 0.04 0.04 0.05 0.06 0.06 0.07 0.11 0.15 0.17 0.20 0.17 0.12 0.10 0.08 0.14 0.14 0.13 0.13 0.12 0.09 0.09 0.07 0.07 0.05 0.04 0.03 0.04 0.05 0.05 0.05 0.06 0.06 0.06 0.06 0.06 0.07
0.02 0.02 0.03 0.04 0.05 0.06 0.07 0.10 0.16 0.20 0.20 0.21 0.17 0.12 0.09 0.10 0.14 0.16 0.16 0.11 0.08 0.07 0.08 0.06 0.06 0.06 0.06 0.05 0.04 0.04 0.04 0.03 0.04 0.04 0.05 0.04 0.04 0.04
0.03 0.03 0.03 0.03 0.03 0.03 0.06 0.11 0.17 0.21 0.21 0.22 0.19 0.16 0.12 0.14 0.19 0.22 0.21 0.21 0.17 0.11 0.13 0.08 0.07 0.07 0.08 0.10 0.10 0.07 0.05 0.04 0.03 0.03 0.03 0.04 0.04 0.03
0.05 0.06 0.04 0.02 0.04 0.07 0.07 0.07 0.08 0.10 0.16 0.24 0.24 0.21 0.19 0.21 0.31 0.32 0.31 0.30 0.25 0.18 0.22 0.17 0.11 0.11 0.10 0.10 0.12 0.11 0.08 0.08 0.06 0.03 0.02 0.02 0.04 0.04
0.05 0.06 0.06 0.06 0.06 0.07 0.06 0.05 0.05 0.05 0.09 0.14 0.22 0.21 0.20 0.24 0.34 0.38 0.36 0.33 0.25 0.20 0.29 0.29 0.17 0.14 0.11 0.16 0.20 0.16 0.12 0.14 0.12 0.05 0.03 0.02 0.02 0.04
0.03 0.04 0.05 0.07 0.07 0.08 0.07 0.07 0.06 0.06 0.07 0.15 0.22 0.27 0.32 0.38 0.41 0.42 0.43 0.42 0.33 0.25 0.34 0.39 0.29 0.22 0.16 0.21 0.24 0.21 0.20 0.26 0.24 0.12 0.05 0.03 0.03 0.03
0.02 0.04 0.07 0.07 0.07 0.07 0.06 0.09 0.12 0.11 0.14 0.20 0.33 0.51 0.57 0.55 0.50 0.45 0.45 0.44 0.42 0.44 0.42 0.44 0.38 0.29 0.24 0.23 0.24 0.25 0.29 0.41 0.41 0.25 0.12 0.07 0.07 0.06
0.04 0.06 0.09 0.08 0.06 0.06 0.07 0.11 0.17 0.17 0.20 0.31 0.47 0.56 0.54 0.43 0.36 0.33 0.34 0.39 0.45 0.52 0.46 0.45 0.40 0.34 0.36 0.31 0.23 0.29 0.38 0.50 0.51 0.39 0.22 0.15 0.12 0.11
0.06 0.08 0.11 0.10 0.09 0.10 0.12 0.15 0.19 0.24 0.31 0.41 0.50 0.48 0.39 0.30 0.26 0.25 0.25 0.28 0.34 0.39 0.37 0.38 0.40 0.36 0.37 0.32 0.28 0.35 0.48 0.61 0.64 0.52 0.35 0.29 0.19 0.16
0.07 0.11 0.14 0.15 0.17 0.21 0.23 0.22 0.25 0.32 0.36 0.42 0.46 0.42 0.33 0.26 0.22 0.19 0.19 0.23 0.26 0.28 0.27 0.28 0.30 0.32 0.36 0.37 0.42 0.51 0.62 0.79 0.78 0.63 0.50 0.40 0.25 0.18
0.06 0.13 0.22 0.27 0.29 0.31 0.33 0.34 0.35 0.36 0.37 0.39 0.37 0.31 0.25 0.21 0.18 0.17 0.19 0.21 0.24 0.27 0.26 0.25 0.28 0.35 0.43 0.47 0.54 0.62 0.65 0.84 0.87 0.73 0.63 0.56 0.45 0.35
0.05 0.12 0.22 0.28 0.29 0.28 0.27 0.29 0.31 0.32 0.32 0.29 0.28 0.24 0.21 0.18 0.18 0.17 0.18 0.18 0.22 0.27 0.27 0.26 0.28 0.31 0.34 0.39 0.48 0.54 0.60 0.72 0.83 0.75 0.62 0.69 0.74 0.58
0.08 0.15 0.24 0.30 0.32 0.30 0.27 0.24 0.24 0.25 0.26 0.26 0.24 0.22 0.21 0.19 0.19 0.19 0.17 0.16 0.19 0.21 0.23 0.23 0.22 0.20 0.18 0.24 0.49 0.57 0.58 0.73 0.80 0.67 0.56 0.66 0.82 0.71
0.09 0.16 0.24 0.30 0.32 0.29 0.27 0.25 0.25 0.24 0.23 0.23 0.23 0.21 0.20 0.19 0.17 0.17 0.16 0.15 0.17 0.18 0.18 0.16 0.15 0.13 0.11 0.23 0.48 0.71 0.67 0.68 0.67 0.60 0.52 0.52 0.70 0.75
0.14 0.19 0.23 0.27 0.30 0.30 0.27 0.23 0.21 0.21 0.20 0.19 0.20 0.21 0.20 0.18 0.16 0.16 0.16 0.15 0.15 0.14 0.13 0.13 0.15 0.16 0.15 0.20 0.45 0.69 0.76 0.59 0.49 0.51 0.51 0.49 0.60 0.65
0.17 0.20 0.22 0.22 0.24 0.25 0.26 0.25 0.22 0.20 0.19 0.18 0.18 0.19 0.19 0.17 0.16 0.14 0.13 0.11 0.12 0.10 0.11 0.13 0.16 0.16 0.09 0.07 0.24 0.46 0.61 0.72 0.59 0.49 0.47 0.45 0.41 0.35
0.16 0.19 0.20 0.20 0.21 0.20 0.19 0.18 0.18 0.17 0.15 0.16 0.18 0.19 0.18 0.16 0.14 0.13 0.12 0.11 0.10 0.09 0.10 0.11 0.11 0.08 0.06 0.09 0.22 0.38 0.44 0.45 0.47 0.50 0.49 0.34 0.21 0.22
0.17 0.17 0.17 0.18 0.17 0.15 0.12 0.11 0.11 0.12 0.12 0.14 0.16 0.17 0.16 0.13 0.11 0.09 0.07 0.06 0.05 0.05 0.05 0.05 0.06 0.05 0.05 0.06 0.12 0.19 0.21 0.18 0.13 0.16 0.32 0.37 0.28 0.27

GEFSNE_prec_meanprecacc_048.txt.gz
Total_Precipitation_Accumulation
0.01 0.01 0.02 0.01 0.01 0.01 0.02 0.04 0.06 0.05 0.02 0.00 0.00 0.00 0.00 0.00 0.00 0.01 0.04 0.05 0.04 0.04 0.04 0.03 0.03 0.03 0.03 0.04 0.05 0.05 0.06 0.06 0.08 0.11 0.15 0.21 0.28 0.34
0.01 0.02 0.02 0.02 0.03 0.04 0.05 0.05 0.06 0.08 0.06 0.02 0.01 0.01 0.02 0.02 0.01 0.03 0.06 0.06 0.05 0.04 0.04 0.04 0.05 0.05 0.05 0.06 0.07 0.08 0.08 0.08 0.08 0.09 0.11 0.14 0.19 0.26
0.02 0.02 0.04 0.05 0.06 0.06 0.06 0.05 0.06 0.09 0.11 0.05 0.02 0.03 0.06 0.08 0.09 0.12 0.12 0.13 0.11 0.08 0.07 0.08 0.08 0.08 0.08 0.10 0.10 0.11 0.12 0.12 0.12 0.12 0.12 0.13 0.15 0.18
0.03 0.04 0.05 0.05 0.07 0.07 0.06 0.06 0.07 0.10 0.13 0.11 0.08 0.07 0.10 0.13 0.14 0.15 0.08 0.06 0.11 0.09 0.08 0.09 0.10 0.12 0.13 0.13 0.13 0.11 0.09 0.08 0.09 0.10 0.12 0.13 0.15 0.16
0.03 0.04 0.05 0.05 0.06 0.06 0.06 0.06 0.07 0.09 0.14 0.18 0.15 0.13 0.12 0.10 0.13 0.11 0.11 0.16 0.11 0.08 0.08 0.08 0.09 0.09 0.08 0.08 0.07 0.07 0.06 0.04 0.04 0.05 0.07 0.10 0.13 0.15
0.03 0.03 0.04 0.04 0.05 0.06 0.06 0.07 0.11 0.15 0.17 0.20 0.17 0.12 0.10 0.08 0.14 0.14 0.13 0.13 0.12 0.09 0.09 0.07 0.07 0.05 0.04 0.03 0.04 0.05 0.05 0.05 0.06 0.06 0.06 0.06 0.07 0.08
0.02 0.02 0.03 0.04 0.05 0.06 0.07 0.10 0.16 0.20 0.20 0.21 0.17 0.12 0.09 0.10 0.14 0.16 0.16 0.11 0.08 0.07 0.08 0.06 0.06 0.06 0.06 0.05 0.04 0.04 0.04 0.04 0.04 0.05 0.05 0.05 0.04 0.04
0.03 0.03 0.03 0.03 0.03 0.03 0.06 0.11 0.17 0.21 0.21 0.22 0.19 0.17 0.12 0.14 0.20 0.22 0.22 0.22 0.17 0.11 0.13 0.08 0.07 0.07 0.08 0.10 0.10 0.07 0.06 0.04 0.03 0.03 0.03 0.04 0.04 0.03
0.05 0.06 0.04 0.02 0.04 0.07 0.07 0.07 0.08 0.10 0.16 0.24 0.25 0.21 0.20 0.22 0.32 0.33 0.31 0.31 0.25 0.19 0.22 0.17 0.11 0.11 0.10 0.10 0.12 0.11 0.08 0.08 0.06 0.03 0.02 0.03 0.04 0.04
0.05 0.06 0.06 0.06 0.06 0.07 0.06 0.05 0.05 0.05 0.09 0.15 0.22 0.22 0.20 0.24 0.34 0.39 0.37 0.33 0.25 0.20 0.29 0.30 0.17 0.14 0.11 0.16 0.20 0.17 0.12 0.14 0.12 0.06 0.03 0.02 0.02 0.04
0.03 0.04 0.05 0.07 0.07 0.08 0.07 0.07 0.06 0.06 0.08 0.15 0.22 0.27 0.32 0.38 0.41 0.42 0.43 0.42 0.34 0.25 0.34 0.39 0.30 0.22 0.17 0.21 0.24 0.21 0.20 0.27 0.25 0.13 0.06 0.04 0.03 0.04
0.02 0.04 0.07 0.07 0.07 0.07 0.06 0.09 0.13 0.11 0.14 0.20 0.33 0.51 0.57 0.55 0.50 0.46 0.45 0.45 0.43 0.45 0.42 0.46 0.40 0.31 0.26 0.23 0.24 0.25 0.29 0.42 0.42 0.27 0.13 0.09 0.08 0.08
0.04 0.06 0.09 0.08 0.06 0.06 0.08 0.12 0.17 0.18 0.21 0.31 0.47 0.56 0.54 0.43 0.36 0.33 0.35 0.40 0.46 0.53 0.47 0.47 0.43 0.38 0.41 0.33 0.24 0.29 0.38 0.51 0.53 0.40 0.24 0.18 0.15 0.13
0.06 0.08 0.11 0.10 0.09 0.11 0.12 0.16 0.19 0.25 0.31 0.42 0.50 0.49 0.39 0.30 0.26 0.25 0.25 0.29 0.35 0.39 0.37 0.40 0.42 0.39 0.42 0.35 0.30 0.36 0.48 0.62 0.67 0.55 0.39 0.33 0.23 0.20
0.07 0.11 0.14 0.15 0.17 0.21 0.24 0.22 0.26 0.33 0.37 0.42 0.46 0.42 0.33 0.26 0.22 0.19 0.19 0.23 0.26 0.28 0.28 0.28 0.31 0.33 0.39 0.40 0.45 0.55 0.65 0.81 0.81 0.68 0.55 0.44 0.30 0.22
0.06 0.13 0.23 0.28 0.30 0.32 0.34 0.35 0.36 0.37 0.37 0.39 0.37 0.31 0.25 0.21 0.18 0.17 0.19 0.21 0.24 0.27 0.27 0.25 0.28 0.36 0.45 0.49 0.57 0.66 0.69 0.89 0.92 0.78 0.68 0.61 0.50 0.38
0.06 0.13 0.24 0.30 0.31 0.30 0.28 0.29 0.31 0.33 0.32 0.29 0.28 0.25 0.21 0.18 0.18 0.17 0.18 0.19 0.23 0.27 0.28 0.26 0.28 0.31 0.35 0.40 0.51 0.58 0.64 0.77 0.89 0.81 0.68 0.75 0.78 0.63
0.11 0.19 0.28 0.33 0.34 0.31 0.28 0.25 0.24 0.26 0.26 0.26 0.24 0.22 0.21 0.20 0.19 0.19 0.17 0.17 0.20 0.22 0.24 0.23 0.22 0.20 0.18 0.26 0.52 0.62 0.61 0.78 0.84 0.72 0.60 0.71 0.88 0.77
0.15 0.21 0.28 0.33 0.34 0.30 0.27 0.26 0.26 0.24 0.23 0.24 0.23 0.22 0.21 0.19 0.17 0.17 0.16 0.16 0.17 0.19 0.19 0.17 0.15 0.14 0.13 0.25 0.51 0.75 0.71 0.71 0.70 0.62 0.54 0.55 0.75 0.81
0.18 0.22 0.25 0.28 0.31 0.30 0.27 0.23 0.22 0.21 0.20 0.20 0.21 0.21 0.20 0.18 0.16 0.16 0.16 0.15 0.16 0.15 0.14 0.14 0.16 0.17 0.16 0.23 0.49 0.72 0.79 0.62 0.51 0.53 0.54 0.52 0.64 0.69
0.18 0.21 0.22 0.22 0.24 0.25 0.26 0.25 0.22 0.21 0.20 0.19 0.19 0.20 0.19 0.17 0.16 0.14 0.13 0.11 0.12 0.10 0.12 0.14 0.17 0.16 0.10 0.08 0.27 0.49 0.63 0.74 0.62 0.52 0.49 0.47 0.44 0.37
0.17 0.19 0.20 0.20 0.21 0.20 0.19 0.19 0.18 0.17 0.16 0.16 0.18 0.20 0.19 0.17 0.15 0.13 0.12 0.11 0.10 0.09 0.10 0.11 0.11 0.09 0.07 0.10 0.24 0.41 0.46 0.46 0.48 0.51 0.50 0.35 0.22 0.23
0.17 0.17 0.17 0.18 0.17 0.15 0.12 0.11 0.12 0.12 0.13 0.14 0.16 0.18 0.16 0.13 0.11 0.09 0.07 0.06 0.05 0.05 0.05 0.06 0.06 0.05 0.06 0.07 0.13 0.20 0.23 0.20 0.14 0.17 0.33 0.39 0.29 0.29